| time (UTC) | temp C | wind direction | speed KPH | gust KPH | rain 1hr cm | rain 24hr cm | rain mn cm | humidity % | barometer mb |
| 20260906082503 | 25 | 0 | 0.0 | 0.0 | 0.00 | 0.00 | 0.00 | 77 | 1013.5 |
| 20260906082003 | 25 | 55 | 0.0 | 1.6 | 0.00 | 0.00 | 0.00 | 76 | 1013.7 |
| 20260906081503 | 25 | 55 | 0.0 | 1.6 | 0.00 | 0.00 | 0.00 | 76 | 1013.7 |
| 20260906081003 | 25 | 55 | 0.0 | 4.8 | 0.00 | 0.00 | 0.00 | 75 | 1014.0 |
| 20260906080503 | 25 | 55 | 1.6 | 6.4 | 0.00 | 0.00 | 0.00 | 75 | 1014.1 |
| 20260906080003 | 25 | 54 | 1.6 | 9.7 | 0.00 | 0.00 | 0.00 | 74 | 1014.2 |
| 20260906075717 | 25 | 53 | 1.6 | 9.7 | 0.00 | 0.00 | 0.00 | 74 | 1014.4 |
| 20260906075003 | 25 | 50 | 1.6 | 9.7 | 0.00 | 0.00 | 0.00 | 75 | 1014.7 |
| 20260906074503 | 25 | 49 | 1.6 | 9.7 | 0.00 | 0.00 | 0.00 | 76 | 1014.7 |
| 20260906074003 | 25 | 61 | 1.6 | 9.7 | 0.00 | 0.00 | 0.00 | 76 | 1014.5 |
| 20260906073503 | 26 | 63 | 1.6 | 11.3 | 0.00 | 0.00 | 0.00 | 77 | 1014.7 |
| 20260906073003 | 26 | 289 | 1.6 | 11.3 | 0.00 | 0.00 | 0.00 | 77 | 1014.7 |
| 20260906072503 | 26 | 309 | 1.6 | 11.3 | 0.00 | 0.00 | 0.00 | 77 | 1014.9 |
| 20260906072003 | 26 | 351 | 1.6 | 11.3 | 0.00 | 0.00 | 0.00 | 77 | 1014.8 |
| 20260906071503 | 26 | 299 | 4.8 | 17.7 | 0.00 | 0.00 | 0.00 | 77 | 1015.0 |
| 20260906071003 | 26 | 280 | 4.8 | 17.7 | 0.00 | 0.00 | 0.00 | 78 | 1015.0 |
| 20260906070503 | 26 | 272 | 4.8 | 12.9 | 0.00 | 0.00 | 0.00 | 78 | 1015.1 |
| 20260906070218 | 26 | 272 | 1.6 | 12.9 | 0.00 | 0.00 | 0.00 | 78 | 1015.1 |
| 20260906065503 | 26 | 272 | 0.0 | 4.8 | 0.00 | 0.00 | 0.00 | 78 | 1014.9 |
| 20260906065003 | 26 | 272 | 0.0 | 1.6 | 0.00 | 0.00 | 0.00 | 79 | 1014.6 |
| 20260906064503 | 26 | 272 | 0.0 | 6.4 | 0.00 | 0.00 | 0.00 | 80 | 1014.5 |
| 20260906064003 | 26 | 272 | 0.0 | 6.4 | 0.00 | 0.00 | 0.00 | 80 | 1014.5 |
| 20260906063716 | 26 | 272 | 0.0 | 6.4 | 0.00 | 0.00 | 0.00 | 81 | 1014.5 |
| 20260906063003 | 26 | 272 | 0.0 | 6.4 | 0.00 | 0.00 | 0.00 | 82 | 1014.3 |
| 20260906062503 | 26 | 272 | 1.6 | 6.4 | 0.00 | 0.00 | 0.00 | 82 | 1014.2 |
| 20260906062003 | 26 | 272 | 0.0 | 4.8 | 0.00 | 0.00 | 0.00 | 81 | 1014.3 |
| 20260906061503 | 26 | 0 | 0.0 | 0.0 | 0.00 | 0.00 | 0.00 | 82 | 1014.3 |
| 20260906061003 | 26 | 0 | 0.0 | 0.0 | 0.00 | 0.00 | 0.00 | 81 | 1014.4 |
| 20260906060503 | 26 | 0 | 0.0 | 0.0 | 0.00 | 0.00 | 0.00 | 80 | 1014.5 |
| 20260906060003 | 26 | 272 | 0.0 | 1.6 | 0.00 | 0.00 | 0.00 | 80 | 1014.4 |
| 20260906055503 | 26 | 272 | 0.0 | 9.7 | 0.00 | 0.00 | 0.00 | 80 | 1014.5 |
| 20260906055003 | 26 | 272 | 0.0 | 9.7 | 0.00 | 0.00 | 0.00 | 80 | 1014.5 |
| 20260906054503 | 26 | 272 | 0.0 | 4.8 | 0.00 | 0.00 | 0.00 | 81 | 1014.5 |
| 20260906054003 | 26 | 272 | 0.0 | 1.6 | 0.00 | 0.00 | 0.00 | 82 | 1014.7 |
| 20260906053503 | 25 | 272 | 0.0 | 1.6 | 0.00 | 0.00 | 0.00 | 83 | 1014.5 |
| 20260906053003 | 25 | 272 | 0.0 | 1.6 | 0.00 | 0.00 | 0.00 | 84 | 1014.4 |
| 20260906052718 | 25 | 272 | 0.0 | 4.8 | 0.00 | 0.00 | 0.00 | 84 | 1014.5 |
| 20260906052003 | 25 | 272 | 1.6 | 4.8 | 0.00 | 0.00 | 0.00 | 84 | 1014.3 |
| 20260906051503 | 25 | 272 | 0.0 | 4.8 | 0.00 | 0.00 | 0.00 | 84 | 1014.1 |
| 20260906051003 | 25 | 0 | 0.0 | 0.0 | 0.00 | 0.00 | 0.00 | 83 | 1014.0 |
| 20260906050503 | 25 | 0 | 0.0 | 0.0 | 0.00 | 0.00 | 0.00 | 83 | 1014.1 |
| 20260906050004 | 25 | 0 | 0.0 | 0.0 | 0.00 | 0.00 | 0.00 | 83 | 1014.1 |
| 20260906045503 | 26 | 0 | 0.0 | 0.0 | 0.00 | 0.00 | 0.00 | 82 | 1014.2 |
| 20260906045217 | 26 | 0 | 0.0 | 0.0 | 0.00 | 0.00 | 0.00 | 82 | 1014.2 |
| 20260906044503 | 26 | 0 | 0.0 | 0.0 | 0.00 | 0.00 | 0.00 | 82 | 1014.4 |
| 20260906044003 | 26 | 0 | 0.0 | 0.0 | 0.00 | 0.00 | 0.00 | 82 | 1014.4 |
| 20260906043718 | 26 | 0 | 0.0 | 0.0 | 0.00 | 0.00 | 0.00 | 81 | 1014.5 |
| 20260906043003 | 26 | 0 | 0.0 | 0.0 | 0.00 | 0.00 | 0.00 | 81 | 1014.7 |
| 20260906042503 | 26 | 0 | 0.0 | 0.0 | 0.00 | 0.00 | 0.00 | 81 | 1014.4 |
| 20260906042003 | 26 | 0 | 0.0 | 0.0 | 0.00 | 0.00 | 0.00 | 80 | 1014.6 |
| 20260906041503 | 26 | 0 | 0.0 | 0.0 | 0.00 | 0.00 | 0.00 | 80 | 1014.4 |
| 20260906041003 | 26 | 0 | 0.0 | 0.0 | 0.00 | 0.00 | 0.00 | 80 | 1014.6 |
| 20260906040503 | 26 | 0 | 0.0 | 0.0 | 0.00 | 0.00 | 0.00 | 80 | 1014.5 |
| 20260906040003 | 26 | 0 | 0.0 | 0.0 | 0.00 | 0.00 | 0.00 | 79 | 1014.4 |
| 20260906035717 | 26 | 0 | 0.0 | 0.0 | 0.00 | 0.00 | 0.00 | 79 | 1014.5 |
| 20260906035003 | 26 | 0 | 0.0 | 0.0 | 0.00 | 0.00 | 0.00 | 79 | 1014.5 |
| 20260906034503 | 26 | 0 | 0.0 | 0.0 | 0.00 | 0.00 | 0.00 | 78 | 1014.5 |
| 20260906034216 | 26 | 0 | 0.0 | 0.0 | 0.00 | 0.00 | 0.00 | 78 | 1014.6 |
| 20260906033503 | 26 | 272 | 0.0 | 1.6 | 0.00 | 0.00 | 0.00 | 78 | 1014.6 |
| 20260906033003 | 26 | 272 | 0.0 | 1.6 | 0.00 | 0.00 | 0.00 | 78 | 1014.6 |
| 20260906032717 | 26 | 272 | 0.0 | 1.6 | 0.00 | 0.00 | 0.00 | 78 | 1014.4 |
| 20260906032003 | 26 | 0 | 0.0 | 0.0 | 0.00 | 0.00 | 0.00 | 77 | 1014.5 |
| 20260906031717 | 26 | 0 | 0.0 | 0.0 | 0.00 | 0.00 | 0.00 | 78 | 1014.4 |
| 20260906031003 | 26 | 272 | 0.0 | 1.6 | 0.00 | 0.00 | 0.00 | 77 | 1014.5 |
| 20260906030503 | 26 | 272 | 0.0 | 1.6 | 0.00 | 0.00 | 0.00 | 76 | 1014.7 |
| 20260906030218 | 26 | 0 | 0.0 | 0.0 | 0.00 | 0.00 | 0.00 | 76 | 1014.6 |
| 20260906025717 | 26 | 0 | 0.0 | 0.0 | 0.00 | 0.00 | 0.00 | 76 | 1014.6 |
| 20260906025003 | 26 | 0 | 0.0 | 0.0 | 0.00 | 0.00 | 0.00 | 75 | 1014.6 |
| 20260906024717 | 26 | 0 | 0.0 | 0.0 | 0.00 | 0.00 | 0.00 | 75 | 1014.6 |
| 20260906024003 | 26 | 0 | 0.0 | 0.0 | 0.00 | 0.00 | 0.00 | 74 | 1014.4 |
| 20260906023503 | 27 | 0 | 0.0 | 0.0 | 0.00 | 0.00 | 0.00 | 75 | 1014.3 |
| 20260906023003 | 27 | 0 | 0.0 | 0.0 | 0.00 | 0.00 | 0.00 | 73 | 1014.2 |
| 20260906022503 | 27 | 0 | 0.0 | 0.0 | 0.00 | 0.00 | 0.00 | 74 | 1014.2 |
| 20260906022003 | 27 | 0 | 0.0 | 0.0 | 0.00 | 0.00 | 0.00 | 73 | 1014.1 |
| 20260906021717 | 27 | 0 | 0.0 | 0.0 | 0.00 | 0.00 | 0.00 | 73 | 1013.9 |
| 20260906021003 | 27 | 0 | 0.0 | 0.0 | 0.00 | 0.00 | 0.00 | 72 | 1014.1 |
| 20260906020717 | 27 | 272 | 0.0 | 1.6 | 0.00 | 0.00 | 0.00 | 71 | 1014.0 |
| 20260906020003 | 27 | 272 | 0.0 | 1.6 | 0.00 | 0.00 | 0.00 | 70 | 1013.7 |
| 20260906015503 | 27 | 0 | 0.0 | 0.0 | 0.00 | 0.00 | 0.00 | 70 | 1013.8 |
| 20260906015004 | 27 | 0 | 0.0 | 0.0 | 0.00 | 0.00 | 0.00 | 70 | 1013.7 |
| 20260906014503 | 27 | 0 | 0.0 | 0.0 | 0.00 | 0.00 | 0.00 | 69 | 1013.6 |
| 20260906014003 | 27 | 0 | 0.0 | 0.0 | 0.00 | 0.00 | 0.00 | 69 | 1013.5 |
| 20260906013717 | 27 | 0 | 0.0 | 0.0 | 0.00 | 0.00 | 0.00 | 68 | 1013.5 |
| 20260906013003 | 28 | 0 | 0.0 | 0.0 | 0.00 | 0.00 | 0.00 | 66 | 1013.3 |
| 20260906012503 | 28 | 0 | 0.0 | 0.0 | 0.00 | 0.00 | 0.00 | 66 | 1013.4 |
| 20260906012003 | 28 | 272 | 0.0 | 1.6 | 0.00 | 0.00 | 0.00 | 65 | 1013.5 |
| 20260906011717 | 28 | 272 | 0.0 | 4.8 | 0.00 | 0.00 | 0.00 | 65 | 1013.4 |
| 20260906011217 | 28 | 272 | 0.0 | 4.8 | 0.00 | 0.00 | 0.00 | 65 | 1013.3 |
| 20260906010503 | 28 | 272 | 1.6 | 6.4 | 0.00 | 0.00 | 0.00 | 66 | 1013.3 |
| 20260906010003 | 28 | 272 | 0.0 | 4.8 | 0.00 | 0.00 | 0.00 | 66 | 1013.3 |
| 20260906005716 | 28 | 272 | 0.0 | 1.6 | 0.00 | 0.00 | 0.00 | 65 | 1013.3 |
| 20260906005003 | 29 | 272 | 0.0 | 1.6 | 0.00 | 0.00 | 0.00 | 64 | 1013.0 |
| 20260906004503 | 29 | 272 | 0.0 | 1.6 | 0.00 | 0.00 | 0.00 | 64 | 1013.0 |
| 20260906004003 | 30 | 272 | 0.0 | 1.6 | 0.00 | 0.00 | 0.00 | 64 | 1013.0 |
| 20260906003503 | 30 | 0 | 0.0 | 0.0 | 0.00 | 0.00 | 0.00 | 62 | 1013.0 |
| 20260906003003 | 30 | 272 | 0.0 | 1.6 | 0.00 | 0.00 | 0.00 | 62 | 1013.0 |
| 20260906002718 | 30 | 272 | 0.0 | 1.6 | 0.00 | 0.00 | 0.00 | 62 | 1013.2 |
| 20260906002004 | 30 | 272 | 0.0 | 1.6 | 0.00 | 0.00 | 0.00 | 62 | 1013.1 |
| 20260906001503 | 30 | 272 | 0.0 | 4.8 | 0.00 | 0.00 | 0.00 | 62 | 1013.3 |
| 20260906001003 | 30 | 272 | 0.0 | 4.8 | 0.00 | 0.00 | 0.00 | 61 | 1013.4 |
| 20260906000718 | 30 | 272 | 0.0 | 4.8 | 0.00 | 0.00 | 0.00 | 62 | 1013.4 |
| 20260906000003 | 31 | 272 | 1.6 | 6.4 | 0.00 | 0.00 | 0.00 | 61 | 1013.8 |
| 20260905235503 | 31 | 272 | 1.6 | 12.9 | 0.00 | 0.00 | 0.00 | 60 | 1013.6 |
| 20260905235003 | 32 | 272 | 1.6 | 12.9 | 0.00 | 0.00 | 0.00 | 57 | 1013.4 |
| 20260905234503 | 33 | 272 | 1.6 | 6.4 | 0.00 | 0.00 | 0.00 | 55 | 1013.4 |
| 20260905234003 | 34 | 272 | 1.6 | 4.8 | 0.00 | 0.00 | 0.00 | 55 | 1012.9 |
| 20260905233503 | 34 | 272 | 4.8 | 6.4 | 0.00 | 0.00 | 0.00 | 55 | 1012.8 |
| 20260905233217 | 34 | 272 | 4.8 | 9.7 | 0.00 | 0.00 | 0.00 | 54 | 1013.1 |
| 20260905232503 | 34 | 272 | 4.8 | 9.7 | 0.00 | 0.00 | 0.00 | 55 | 1012.8 |
| 20260905232003 | 34 | 272 | 4.8 | 6.4 | 0.00 | 0.00 | 0.00 | 55 | 1012.7 |
| 20260905231503 | 34 | 272 | 1.6 | 9.7 | 0.00 | 0.00 | 0.00 | 55 | 1012.8 |
| 20260905231003 | 34 | 272 | 1.6 | 9.7 | 0.00 | 0.00 | 0.00 | 53 | 1012.8 |
| 20260905230503 | 34 | 272 | 1.6 | 9.7 | 0.00 | 0.00 | 0.00 | 54 | 1012.7 |
| 20260905230004 | 35 | 272 | 1.6 | 9.7 | 0.00 | 0.00 | 0.00 | 53 | 1012.7 |
| 20260905225503 | 35 | 272 | 1.6 | 6.4 | 0.00 | 0.00 | 0.00 | 53 | 1012.8 |
| 20260905225003 | 35 | 272 | 1.6 | 4.8 | 0.00 | 0.00 | 0.00 | 54 | 1012.7 |
| 20260905224503 | 34 | 272 | 1.6 | 4.8 | 0.00 | 0.00 | 0.00 | 54 | 1012.7 |
| 20260905224003 | 35 | 272 | 4.8 | 6.4 | 0.00 | 0.00 | 0.00 | 53 | 1012.8 |
| 20260905223503 | 35 | 272 | 4.8 | 6.4 | 0.00 | 0.00 | 0.00 | 55 | 1012.7 |
| 20260905223003 | 35 | 272 | 4.8 | 9.7 | 0.00 | 0.00 | 0.00 | 54 | 1012.8 |
| 20260905222503 | 35 | 272 | 1.6 | 9.7 | 0.00 | 0.00 | 0.00 | 53 | 1012.7 |
| 20260905222003 | 34 | 272 | 0.0 | 4.8 | 0.00 | 0.00 | 0.00 | 56 | 1012.9 |
| 20260905221503 | 34 | 0 | 0.0 | 0.0 | 0.00 | 0.00 | 0.00 | 53 | 1012.9 |
| 20260905221003 | 35 | 0 | 0.0 | 0.0 | 0.00 | 0.00 | 0.00 | 52 | 1012.9 |
| 20260905220717 | 35 | 272 | 0.0 | 1.6 | 0.00 | 0.00 | 0.00 | 52 | 1012.8 |
| 20260905220003 | 35 | 272 | 0.0 | 1.6 | 0.00 | 0.00 | 0.00 | 52 | 1013.1 |
| 20260905215503 | 35 | 272 | 0.0 | 4.8 | 0.00 | 0.00 | 0.00 | 49 | 1013.0 |
| 20260905215003 | 35 | 272 | 0.0 | 6.4 | 0.00 | 0.00 | 0.00 | 51 | 1013.0 |
| 20260905214717 | 35 | 272 | 1.6 | 6.4 | 0.00 | 0.00 | 0.00 | 50 | 1013.1 |
| 20260905214003 | 35 | 272 | 0.0 | 4.8 | 0.00 | 0.00 | 0.00 | 53 | 1013.2 |
| 20260905213503 | 34 | 272 | 0.0 | 6.4 | 0.00 | 0.00 | 0.00 | 54 | 1013.1 |
| 20260905213218 | 34 | 272 | 0.0 | 6.4 | 0.00 | 0.00 | 0.00 | 56 | 1013.1 |
| 20260905212503 | 34 | 272 | 1.6 | 9.7 | 0.00 | 0.00 | 0.00 | 55 | 1013.1 |
| 20260905212003 | 34 | 272 | 4.8 | 9.7 | 0.00 | 0.00 | 0.00 | 54 | 1013.2 |
| 20260905211503 | 35 | 272 | 4.8 | 16.1 | 0.00 | 0.00 | 0.00 | 53 | 1013.2 |
| 20260905211003 | 35 | 272 | 4.8 | 16.1 | 0.00 | 0.00 | 0.00 | 51 | 1013.1 |
| 20260905210504 | 36 | 272 | 1.6 | 12.9 | 0.00 | 0.00 | 0.00 | 48 | 1013.0 |
| 20260905210003 | 36 | 272 | 1.6 | 12.9 | 0.00 | 0.00 | 0.00 | 47 | 1013.1 |
| 20260905205503 | 36 | 272 | 1.6 | 12.9 | 0.00 | 0.00 | 0.00 | 51 | 1013.0 |
| 20260905205003 | 36 | 272 | 1.6 | 9.7 | 0.00 | 0.00 | 0.00 | 51 | 1013.2 |
| 20260905204503 | 36 | 272 | 1.6 | 9.7 | 0.00 | 0.00 | 0.00 | 48 | 1013.0 |
| 20260905204003 | 36 | 272 | 1.6 | 9.7 | 0.00 | 0.00 | 0.00 | 48 | 1013.3 |
| 20260905203504 | 36 | 272 | 0.0 | 4.8 | 0.00 | 0.00 | 0.00 | 50 | 1013.3 |
| 20260905203003 | 36 | 272 | 1.6 | 9.7 | 0.00 | 0.00 | 0.00 | 48 | 1013.3 |
| 20260905202504 | 36 | 272 | 4.8 | 16.1 | 0.00 | 0.00 | 0.00 | 50 | 1013.3 |
| 20260905202003 | 36 | 272 | 4.8 | 16.1 | 0.00 | 0.00 | 0.00 | 44 | 1013.5 |
| 20260905201717 | 36 | 272 | 1.6 | 16.1 | 0.00 | 0.00 | 0.00 | 45 | 1013.5 |
| 20260905201003 | 36 | 272 | 0.0 | 9.7 | 0.00 | 0.00 | 0.00 | 47 | 1013.7 |
| 20260905200716 | 36 | 272 | 0.0 | 9.7 | 0.00 | 0.00 | 0.00 | 47 | 1013.7 |
| 20260905200003 | 35 | 272 | 1.6 | 6.4 | 0.00 | 0.00 | 0.00 | 51 | 1014.0 |
| 20260905195503 | 35 | 272 | 1.6 | 12.9 | 0.00 | 0.00 | 0.00 | 49 | 1014.2 |
| 20260905195217 | 36 | 272 | 4.8 | 12.9 | 0.00 | 0.00 | 0.00 | 47 | 1014.1 |
| 20260905194503 | 36 | 272 | 1.6 | 9.7 | 0.00 | 0.00 | 0.00 | 48 | 1014.0 |
| 20260905194003 | 36 | 272 | 4.8 | 17.7 | 0.00 | 0.00 | 0.00 | 49 | 1014.2 |
| 20260905193503 | 36 | 272 | 1.6 | 17.7 | 0.00 | 0.00 | 0.00 | 49 | 1014.3 |
| 20260905193003 | 36 | 272 | 0.0 | 1.6 | 0.00 | 0.00 | 0.00 | 48 | 1014.4 |
| 20260905192503 | 35 | 272 | 0.0 | 9.7 | 0.00 | 0.00 | 0.00 | 50 | 1014.2 |
| 20260905192003 | 35 | 272 | 0.0 | 9.7 | 0.00 | 0.00 | 0.00 | 53 | 1014.3 |
| 20260905191503 | 35 | 272 | 0.0 | 6.4 | 0.00 | 0.00 | 0.00 | 52 | 1014.5 |
| 20260905191003 | 35 | 272 | 1.6 | 12.9 | 0.00 | 0.00 | 0.00 | 50 | 1014.4 |
| 20260905190503 | 35 | 272 | 4.8 | 12.9 | 0.00 | 0.00 | 0.00 | 51 | 1014.6 |
| 20260905190003 | 35 | 272 | 1.6 | 12.9 | 0.00 | 0.00 | 0.00 | 53 | 1014.8 |
| 20260905185503 | 35 | 272 | 0.0 | 6.4 | 0.00 | 0.00 | 0.00 | 53 | 1014.6 |
| 20260905185003 | 35 | 272 | 0.0 | 1.6 | 0.00 | 0.00 | 0.00 | 54 | 1014.7 |
| 20260905184503 | 34 | 272 | 1.6 | 4.8 | 0.00 | 0.00 | 0.00 | 56 | 1014.6 |
| 20260905184003 | 34 | 272 | 1.6 | 9.7 | 0.00 | 0.00 | 0.00 | 57 | 1014.7 |
| 20260905183503 | 33 | 272 | 1.6 | 9.7 | 0.00 | 0.00 | 0.00 | 59 | 1014.9 |
| 20260905183003 | 33 | 272 | 4.8 | 9.7 | 0.00 | 0.00 | 0.00 | 57 | 1014.8 |
| 20260905182718 | 33 | 272 | 4.8 | 9.7 | 0.00 | 0.00 | 0.00 | 57 | 1015.1 |
| 20260905182003 | 33 | 272 | 4.8 | 17.7 | 0.00 | 0.00 | 0.00 | 56 | 1014.8 |
| 20260905181503 | 33 | 272 | 4.8 | 17.7 | 0.00 | 0.00 | 0.00 | 57 | 1015.3 |
| 20260905181003 | 33 | 272 | 1.6 | 12.9 | 0.00 | 0.00 | 0.00 | 59 | 1015.3 |
| 20260905180718 | 33 | 272 | 1.6 | 12.9 | 0.00 | 0.00 | 0.00 | 61 | 1015.2 |
| 20260905180003 | 33 | 272 | 1.6 | 12.9 | 0.00 | 0.00 | 0.00 | 62 | 1015.1 |
| 20260905175503 | 33 | 272 | 1.6 | 12.9 | 0.00 | 0.00 | 0.00 | 59 | 1015.2 |
| 20260905175003 | 33 | 272 | 1.6 | 6.4 | 0.00 | 0.00 | 0.00 | 61 | 1015.2 |
| 20260905174718 | 33 | 272 | 1.6 | 6.4 | 0.00 | 0.00 | 0.00 | 60 | 1015.3 |
| 20260905174003 | 33 | 272 | 4.8 | 12.9 | 0.00 | 0.00 | 0.00 | 62 | 1015.4 |
| 20260905173503 | 33 | 292 | 4.8 | 12.9 | 0.00 | 0.00 | 0.00 | 58 | 1015.3 |
| 20260905173003 | 33 | 345 | 4.8 | 11.3 | 0.00 | 0.00 | 0.00 | 58 | 1015.5 |
| 20260905172503 | 33 | 342 | 4.8 | 11.3 | 0.00 | 0.00 | 0.00 | 61 | 1015.5 |
| 20260905172003 | 33 | 318 | 4.8 | 9.7 | 0.00 | 0.00 | 0.00 | 60 | 1015.6 |
| 20260905171503 | 33 | 323 | 4.8 | 11.3 | 0.00 | 0.00 | 0.00 | 62 | 1015.5 |
| 20260905171003 | 32 | 339 | 4.8 | 11.3 | 0.00 | 0.00 | 0.00 | 62 | 1015.7 |
| 20260905170503 | 33 | 350 | 4.8 | 9.7 | 0.00 | 0.00 | 0.00 | 61 | 1015.8 |
| 20260905170003 | 32 | 339 | 1.6 | 6.4 | 0.00 | 0.00 | 0.00 | 61 | 1015.9 |
| 20260905165503 | 32 | 315 | 1.6 | 9.7 | 0.00 | 0.00 | 0.00 | 63 | 1015.8 |
| 20260905165003 | 32 | 8 | 1.6 | 9.7 | 0.00 | 0.00 | 0.00 | 64 | 1015.8 |
| 20260905164503 | 32 | 37 | 1.6 | 4.8 | 0.00 | 0.00 | 0.00 | 64 | 1016.0 |
| 20260905164003 | 32 | 27 | 1.6 | 6.4 | 0.00 | 0.00 | 0.00 | 66 | 1016.1 |
| 20260905163503 | 32 | 19 | 1.6 | 6.4 | 0.00 | 0.00 | 0.00 | 64 | 1016.2 |
| 20260905163003 | 31 | 18 | 4.8 | 17.7 | 0.00 | 0.00 | 0.00 | 67 | 1016.2 |
| 20260905162503 | 31 | 14 | 6.4 | 17.7 | 0.00 | 0.00 | 0.00 | 66 | 1016.2 |
| 20260905162003 | 31 | 13 | 4.8 | 16.1 | 0.00 | 0.00 | 0.00 | 65 | 1016.4 |
| 20260905161503 | 31 | 20 | 4.8 | 17.7 | 0.00 | 0.00 | 0.00 | 67 | 1016.3 |
| 20260905161003 | 31 | 15 | 4.8 | 17.7 | 0.00 | 0.00 | 0.00 | 65 | 1016.3 |
| 20260905160503 | 31 | 360 | 1.6 | 6.4 | 0.00 | 0.00 | 0.00 | 67 | 1016.5 |
| 20260905160003 | 31 | 2 | 4.8 | 9.7 | 0.00 | 0.00 | 0.00 | 67 | 1016.4 |
| 20260905155503 | 31 | 17 | 4.8 | 9.7 | 0.00 | 0.00 | 0.00 | 66 | 1016.5 |
| 20260905155003 | 30 | 19 | 1.6 | 9.7 | 0.00 | 0.00 | 0.00 | 68 | 1016.5 |
| 20260905154503 | 30 | 348 | 0.0 | 9.7 | 0.00 | 0.00 | 0.00 | 71 | 1016.6 |
| 20260905154003 | 30 | 32 | 0.0 | 1.6 | 0.00 | 0.00 | 0.00 | 72 | 1016.6 |
| 20260905153503 | 30 | 0 | 0.0 | 0.0 | 0.00 | 0.00 | 0.00 | 71 | 1016.5 |
| 20260905153003 | 30 | 32 | 0.0 | 4.8 | 0.00 | 0.00 | 0.00 | 72 | 1016.5 |
| 20260905152503 | 30 | 32 | 0.0 | 4.8 | 0.00 | 0.00 | 0.00 | 72 | 1016.4 |
| 20260905152003 | 30 | 39 | 1.6 | 9.7 | 0.00 | 0.00 | 0.00 | 72 | 1016.4 |
| 20260905151503 | 29 | 44 | 1.6 | 9.7 | 0.00 | 0.00 | 0.00 | 72 | 1016.4 |
| 20260905151003 | 29 | 56 | 1.6 | 6.4 | 0.00 | 0.00 | 0.00 | 74 | 1016.4 |
| 20260905150503 | 29 | 56 | 0.0 | 6.4 | 0.00 | 0.00 | 0.00 | 77 | 1016.4 |
| 20260905150003 | 29 | 56 | 0.0 | 4.8 | 0.00 | 0.00 | 0.00 | 78 | 1016.5 |
| 20260905145503 | 28 | 0 | 0.0 | 0.0 | 0.00 | 0.00 | 0.00 | 77 | 1016.3 |
| 20260905145003 | 28 | 0 | 0.0 | 0.0 | 0.00 | 0.00 | 0.00 | 77 | 1016.4 |
| 20260905144503 | 28 | 0 | 0.0 | 0.0 | 0.00 | 0.00 | 0.00 | 77 | 1016.5 |
| 20260905144217 | 28 | 0 | 0.0 | 0.0 | 0.00 | 0.00 | 0.00 | 77 | 1016.4 |
| 20260905143503 | 28 | 0 | 0.0 | 0.0 | 0.00 | 0.00 | 0.00 | 80 | 1016.3 |
| 20260905143217 | 27 | 0 | 0.0 | 0.0 | 0.00 | 0.00 | 0.00 | 80 | 1016.7 |
| 20260905142503 | 27 | 0 | 0.0 | 0.0 | 0.00 | 0.00 | 0.00 | 81 | 1016.5 |
| 20260905142217 | 27 | 0 | 0.0 | 0.0 | 0.00 | 0.00 | 0.00 | 82 | 1016.6 |
| 20260905141503 | 27 | 0 | 0.0 | 0.0 | 0.00 | 0.00 | 0.00 | 83 | 1016.6 |
| 20260905141003 | 27 | 0 | 0.0 | 0.0 | 0.00 | 0.00 | 0.00 | 84 | 1016.8 |
| 20260905140503 | 26 | 0 | 0.0 | 0.0 | 0.00 | 0.00 | 0.00 | 85 | 1016.8 |
| 20260905140004 | 26 | 0 | 0.0 | 0.0 | 0.00 | 0.00 | 0.00 | 87 | 1016.8 |
| 20260905135718 | 26 | 0 | 0.0 | 0.0 | 0.00 | 0.00 | 0.00 | 87 | 1016.8 |
| 20260905135003 | 26 | 58 | 0.0 | 6.4 | 0.00 | 0.00 | 0.00 | 89 | 1016.8 |
| 20260905134503 | 26 | 58 | 1.6 | 6.4 | 0.00 | 0.00 | 0.00 | 88 | 1016.7 |
| 20260905134003 | 26 | 54 | 0.0 | 4.8 | 0.00 | 0.00 | 0.00 | 88 | 1016.6 |
| 20260905133503 | 25 | 51 | 0.0 | 4.8 | 0.00 | 0.00 | 0.00 | 89 | 1016.9 |
| 20260905133217 | 25 | 43 | 0.0 | 4.8 | 0.00 | 0.00 | 0.00 | 90 | 1016.9 |
| 20260905132503 | 25 | 0 | 0.0 | 0.0 | 0.00 | 0.00 | 0.00 | 90 | 1016.9 |
| 20260905132003 | 25 | 0 | 0.0 | 0.0 | 0.00 | 0.00 | 0.00 | 91 | 1016.9 |
| 20260905131503 | 25 | 0 | 0.0 | 0.0 | 0.00 | 0.00 | 0.00 | 91 | 1016.8 |
| 20260905131003 | 25 | 0 | 0.0 | 0.0 | 0.00 | 0.00 | 0.00 | 91 | 1016.9 |
| 20260905130718 | 24 | 0 | 0.0 | 0.0 | 0.00 | 0.00 | 0.00 | 92 | 1016.9 |
| 20260905130003 | 24 | 0 | 0.0 | 0.0 | 0.00 | 0.00 | 0.00 | 93 | 1016.9 |
| 20260905125503 | 24 | 0 | 0.0 | 0.0 | 0.00 | 0.00 | 0.00 | 93 | 1016.8 |
| 20260905125003 | 23 | 43 | 0.0 | 1.6 | 0.00 | 0.00 | 0.00 | 93 | 1016.8 |
| 20260905124503 | 23 | 43 | 0.0 | 1.6 | 0.00 | 0.00 | 0.00 | 94 | 1016.7 |
| 20260905124003 | 23 | 0 | 0.0 | 0.0 | 0.00 | 0.00 | 0.00 | 94 | 1016.7 |
| 20260905123718 | 23 | 0 | 0.0 | 0.0 | 0.00 | 0.00 | 0.00 | 94 | 1016.8 |
| 20260905123003 | 23 | 0 | 0.0 | 0.0 | 0.00 | 0.00 | 0.00 | 94 | 1016.8 |
| 20260905122503 | 23 | 0 | 0.0 | 0.0 | 0.00 | 0.00 | 0.00 | 94 | 1016.7 |
| 20260905122003 | 23 | 0 | 0.0 | 0.0 | 0.00 | 0.00 | 0.00 | 94 | 1016.6 |
| 20260905121503 | 23 | 0 | 0.0 | 0.0 | 0.00 | 0.00 | 0.00 | 94 | 1016.5 |
| 20260905121216 | 23 | 0 | 0.0 | 0.0 | 0.00 | 0.00 | 0.00 | 94 | 1016.8 |
| 20260905120503 | 22 | 0 | 0.0 | 0.0 | 0.00 | 0.00 | 0.00 | 94 | 1016.7 |
| 20260905120003 | 22 | 0 | 0.0 | 0.0 | 0.00 | 0.00 | 0.00 | 94 | 1016.3 |
| 20260905115717 | 22 | 0 | 0.0 | 0.0 | 0.00 | 0.00 | 0.00 | 94 | 1016.3 |
| 20260905115003 | 22 | 0 | 0.0 | 0.0 | 0.00 | 0.00 | 0.00 | 94 | 1016.0 |
| 20260905114503 | 22 | 0 | 0.0 | 0.0 | 0.00 | 0.00 | 0.00 | 94 | 1016.0 |
| 20260905114003 | 22 | 0 | 0.0 | 0.0 | 0.00 | 0.00 | 0.00 | 94 | 1016.1 |
| 20260905113503 | 22 | 0 | 0.0 | 0.0 | 0.00 | 0.00 | 0.00 | 94 | 1015.9 |
| 20260905113003 | 22 | 0 | 0.0 | 0.0 | 0.00 | 0.00 | 0.00 | 94 | 1015.9 |
| 20260905112503 | 22 | 0 | 0.0 | 0.0 | 0.00 | 0.00 | 0.00 | 94 | 1016.0 |
| 20260905112003 | 22 | 0 | 0.0 | 0.0 | 0.00 | 0.00 | 0.00 | 94 | 1015.9 |
| 20260905111717 | 22 | 0 | 0.0 | 0.0 | 0.00 | 0.00 | 0.00 | 94 | 1015.9 |
| 20260905111003 | 22 | 0 | 0.0 | 0.0 | 0.00 | 0.00 | 0.00 | 94 | 1015.7 |
| 20260905110503 | 22 | 0 | 0.0 | 0.0 | 0.00 | 0.00 | 0.00 | 94 | 1015.8 |
| 20260905110003 | 22 | 0 | 0.0 | 0.0 | 0.00 | 0.00 | 0.00 | 94 | 1015.6 |
| 20260905105503 | 22 | 0 | 0.0 | 0.0 | 0.00 | 0.00 | 0.00 | 94 | 1015.6 |
| 20260905105003 | 22 | 0 | 0.0 | 0.0 | 0.00 | 0.00 | 0.00 | 94 | 1015.4 |
| 20260905104503 | 22 | 0 | 0.0 | 0.0 | 0.00 | 0.00 | 0.00 | 94 | 1015.4 |
| 20260905104003 | 22 | 0 | 0.0 | 0.0 | 0.00 | 0.00 | 0.00 | 94 | 1015.6 |
| 20260905103503 | 22 | 0 | 0.0 | 0.0 | 0.00 | 0.00 | 0.00 | 94 | 1015.6 |
| 20260905103003 | 22 | 0 | 0.0 | 0.0 | 0.00 | 0.00 | 0.00 | 94 | 1015.5 |
| 20260905102717 | 22 | 0 | 0.0 | 0.0 | 0.00 | 0.00 | 0.00 | 94 | 1015.5 |
| 20260905102003 | 22 | 0 | 0.0 | 0.0 | 0.00 | 0.00 | 0.00 | 94 | 1015.6 |
| 20260905101503 | 22 | 0 | 0.0 | 0.0 | 0.00 | 0.00 | 0.00 | 94 | 1015.6 |
| 20260905101003 | 22 | 0 | 0.0 | 0.0 | 0.00 | 0.00 | 0.00 | 93 | 1015.5 |
| 20260905100503 | 22 | 0 | 0.0 | 0.0 | 0.00 | 0.00 | 0.00 | 93 | 1015.3 |
| 20260905100218 | 23 | 0 | 0.0 | 0.0 | 0.00 | 0.00 | 0.00 | 93 | 1015.4 |
| 20260905095503 | 23 | 0 | 0.0 | 0.0 | 0.00 | 0.00 | 0.00 | 93 | 1015.4 |
| 20260905095003 | 23 | 0 | 0.0 | 0.0 | 0.00 | 0.00 | 0.00 | 93 | 1015.4 |
| 20260905094503 | 23 | 0 | 0.0 | 0.0 | 0.00 | 0.00 | 0.00 | 93 | 1015.5 |
| 20260905094003 | 23 | 0 | 0.0 | 0.0 | 0.00 | 0.00 | 0.00 | 93 | 1015.3 |
| 20260905093503 | 23 | 0 | 0.0 | 0.0 | 0.00 | 0.00 | 0.00 | 93 | 1015.3 |
| 20260905093217 | 23 | 0 | 0.0 | 0.0 | 0.00 | 0.00 | 0.00 | 93 | 1015.3 |
| 20260905092716 | 23 | 0 | 0.0 | 0.0 | 0.00 | 0.00 | 0.00 | 93 | 1015.1 |
| 20260905092004 | 23 | 0 | 0.0 | 0.0 | 0.00 | 0.00 | 0.00 | 93 | 1015.2 |
| 20260905091503 | 23 | 0 | 0.0 | 0.0 | 0.00 | 0.00 | 0.00 | 93 | 1015.1 |
| 20260905091003 | 23 | 0 | 0.0 | 0.0 | 0.00 | 0.00 | 0.00 | 93 | 1015.2 |
| 20260905090503 | 23 | 0 | 0.0 | 0.0 | 0.00 | 0.00 | 0.00 | 93 | 1015.2 |
| 20260905090218 | 23 | 0 | 0.0 | 0.0 | 0.00 | 0.00 | 0.00 | 93 | 1015.0 |
| 20260905085503 | 23 | 0 | 0.0 | 0.0 | 0.00 | 0.00 | 0.00 | 93 | 1015.2 |
| 20260905085003 | 23 | 0 | 0.0 | 0.0 | 0.00 | 0.00 | 0.00 | 94 | 1015.1 |
| 20260905084503 | 23 | 0 | 0.0 | 0.0 | 0.00 | 0.00 | 0.00 | 94 | 1015.3 |
| 20260905084004 | 23 | 0 | 0.0 | 0.0 | 0.00 | 0.00 | 0.00 | 93 | 1015.1 |
| 20260905083504 | 23 | 0 | 0.0 | 0.0 | 0.00 | 0.00 | 0.00 | 93 | 1015.1 |
| 20260905083218 | 23 | 0 | 0.0 | 0.0 | 0.00 | 0.00 | 0.00 | 93 | 1015.2 |